User: anonymous   Login
Location: Lower Kingswood
(51.2667°N, 0.2167°W)
Time: 03:08:01
(UTC+00:00)
Language:

S3M - Orbit

View from above orbital plane
View from above orbital plane
View from above satellite
View from above satellite

Ground track
Ground track

The orbit data is extracted from the following two-line orbital elements,

1 12508U 81053B   24062.66341353  .00000065  00000-0  50560-4 0  9999
2 12508  82.9583 127.7644 0037321 190.2894 169.7503 13.76486016152521
Epoch (UTC): 02 March 2024 15:55:18
Eccentricity: 0.0037321
inclination: 82.9583°
perigee height: 949 km
apogee height: 1004 km
right ascension of ascending node: 127.7644°
argument of perigee: 190.2894°
revolutions per day: 13.76486016
mean anomaly at epoch: 169.7503°
orbit number at epoch: 15252

The dashed part of the orbit path shows where the satellite is in the earth's shadow,  

DLR